This is the latest recevied weather packets stored in our database for station/object 9A3SWO. If no packets are shown the sender has not sent any weather packets the latest 10 day(s).
| Time | Temp. | Humidity | Pressure | Rain* | Wind** | Luminosity | Snow |
|---|---|---|---|---|---|---|---|
| 1788016106 | 27.22° C | 39% | 1016.6 hPa | - | - | - | - |
| 1788015507 | 27.22° C | 40% | 1016.7 hPa | - | - | - | - |
| 1788014906 | 27.22° C | 40% | 1016.7 hPa | - | - | - | - |
| 1788014306 | 27.22° C | 40% | 1016.9 hPa | - | - | - | - |
| 1788013706 | 26.67° C | 40% | 1016.8 hPa | - | - | - | - |
| 1788013106 | 26.67° C | 40% | 1016.9 hPa | - | - | - | - |
| 1788012506 | 27.22° C | 40% | 1017.1 hPa | - | - | - | - |
| 1788011906 | 27.22° C | 41% | 1017.2 hPa | - | - | - | - |
| 1788011306 | 27.22° C | 41% | 1017.3 hPa | - | - | - | - |
| 1788010706 | 27.22° C | 40% | 1017.4 hPa | - | - | - | - |
| 1788010107 | 27.22° C | 41% | 1017.4 hPa | - | - | - | - |
| 1788009506 | 26.67° C | 41% | 1017.4 hPa | - | - | - | - |
| 1788008906 | 26.67° C | 41% | 1017.5 hPa | - | - | - | - |
| 1788008306 | 26.67° C | 41% | 1017.8 hPa | - | - | - | - |
| 1788007706 | 26.67° C | 41% | 1017.8 hPa | - | - | - | - |
| 1788007106 | 26.67° C | 41% | 1018 hPa | - | - | - | - |
| 1788006507 | 26.67° C | 41% | 1018 hPa | - | - | - | - |
| 1788005906 | 26.11° C | 43% | 1018.1 hPa | - | - | - | - |
| 1788005306 | 26.11° C | 43% | 1018.2 hPa | - | - | - | - |
| 1788004706 | 26.11° C | 44% | 1018.2 hPa | - | - | - | - |
| 1788004106 | 25.56° C | 45% | 1018.4 hPa | - | - | - | - |
| 1788003506 | 26.11° C | 46% | 1018.4 hPa | - | - | - | - |
| 1788002906 | 26.11° C | 46% | 1018.5 hPa | - | - | - | - |
| 1788002306 | 26.11° C | 48% | 1018.7 hPa | - | - | - | - |
| 1788001706 | 25.56° C | 47% | 1018.7 hPa | - | - | - | - |
* Rain since midnight (hover to see other rain measurements)
** Current wind speed in m/s (hover to see current wind gust speed)